• In Austria
  • List of Countries
  • For 7 days
  • Water Temperature
  • Satellite Maps
  • Weather Map
  • News
  • Weather Widgets
  • user-avatar
    Login

    Hourly Weather Harare

    Today, 18 February, Sunday

    Time Temperature Precipitation Wind Pressure Humidity
    00:00 +18°C° 0 mm 0 mps 637 mmHg 88%
    01:00 +19°C° 0 mm 1 mps 637 mmHg 89%
    02:00 +19°C° 0 mm 1 mps 637 mmHg 90%
    03:00 +19°C° 0.2 mm 1 mps 637 mmHg 91%
    04:00 +19°C° 0.2 mm 1 mps 637 mmHg 92%
    05:00 +18°C° 0.2 mm 1 mps 637 mmHg 93%
    06:00 +20°C° 0.2 mm 1 mps 637 mmHg 90%
    07:00 +21°C° 0.2 mm 1 mps 638 mmHg 87%
    08:00 +22°C° 0 mm 1 mps 639 mmHg 83%
    09:00 +23°C° 0.6 mm 1 mps 639 mmHg 77%
    10:00 +25°C° 0.6 mm 2 mps 639 mmHg 72%
    11:00 +26°C° 0.6 mm 3 mps 639 mmHg 67%
    12:00 +26°C° 0.6 mm 3 mps 639 mmHg 66%
    13:00 +26°C° 0.6 mm 2 mps 638 mmHg 64%
    14:00 +27°C° 0 mm 2 mps 638 mmHg 62%
    15:00 +26°C° 1.5 mm 2 mps 638 mmHg 69%
    16:00 +25°C° 1.5 mm 2 mps 637 mmHg 75%
    17:00 +24°C° 1.5 mm 1 mps 637 mmHg 82%
    18:00 +23°C° 1.4 mm 1 mps 637 mmHg 85%
    19:00 +21°C° 1.4 mm 1 mps 637 mmHg 88%
    20:00 +20°C° 1.4 mm 1 mps 637 mmHg 91%
    21:00 +20°C° 0.8 mm 1 mps 637 mmHg 91%
    22:00 +20°C° 0.8 mm 1 mps 637 mmHg 92%
    23:00 +20°C° 0.8 mm 1 mps 638 mmHg 92%

    Tomorrow, 19 February, Monday

    Time Temperature Precipitation Wind Pressure Humidity
    00:00 +20°C° 0.4 mm 1 mps 637 mmHg 93%
    01:00 +19°C° 0.4 mm 1 mps 637 mmHg 93%
    02:00 +19°C° 0.4 mm 1 mps 637 mmHg 93%
    03:00 +19°C° 0 mm 1 mps 637 mmHg 93%
    04:00 +19°C° 0 mm 1 mps 637 mmHg 93%
    05:00 +19°C° 0 mm 1 mps 637 mmHg 94%
    06:00 +20°C° 0.1 mm 1 mps 638 mmHg 91%
    07:00 +20°C° 0.1 mm 1 mps 638 mmHg 89%
    08:00 +21°C° 0.1 mm 1 mps 639 mmHg 86%
    09:00 +22°C° 0.6 mm 1 mps 639 mmHg 81%
    10:00 +24°C° 0.6 mm 2 mps 639 mmHg 76%
    11:00 +25°C° 0.6 mm 2 mps 639 mmHg 71%
    12:00 +25°C° 1.1 mm 2 mps 639 mmHg 72%
    13:00 +25°C° 1.1 mm 2 mps 638 mmHg 73%
    14:00 +25°C° 1.1 mm 2 mps 638 mmHg 74%
    15:00 +24°C° 1.4 mm 2 mps 638 mmHg 77%
    16:00 +24°C° 1.4 mm 1 mps 637 mmHg 80%
    17:00 +24°C° 1.4 mm 1 mps 637 mmHg 83%
    18:00 +23°C° 1.8 mm 1 mps 637 mmHg 85%
    19:00 +22°C° 1.8 mm 1 mps 637 mmHg 88%
    20:00 +18°C° 1.8 mm 0 mps 637 mmHg 90%
    21:00 +18°C° 1.2 mm 0 mps 638 mmHg 91%
    22:00 +18°C° 1.2 mm 0 mps 638 mmHg 92%
    23:00 +18°C° 1.2 mm 0 mps 638 mmHg 92%

    Day after tomorrow, 20 February, Tuesday

    Time Temperature Precipitation Wind Pressure Humidity
    00:00 +18°C° 1.1 mm 0 mps 638 mmHg 93%
    01:00 +17°C° 1.1 mm 0 mps 637 mmHg 93%
    02:00 +17°C° 1.1 mm 0 mps 637 mmHg 94%
    03:00 +17°C° 0.7 mm 0 mps 637 mmHg 93%
    04:00 +17°C° 0.7 mm 0 mps 637 mmHg 93%
    05:00 +17°C° 0.7 mm 0 mps 637 mmHg 93%
    06:00 +17°C° 0.2 mm 0 mps 637 mmHg 92%
    07:00 +18°C° 0.2 mm 0 mps 638 mmHg 91%
    08:00 +18°C° 0.2 mm 0 mps 638 mmHg 90%
    09:00 +21°C° 0.8 mm 1 mps 638 mmHg 86%
    10:00 +22°C° 0.8 mm 1 mps 638 mmHg 82%
    11:00 +23°C° 0.8 mm 2 mps 638 mmHg 79%
    12:00 +24°C° 1.2 mm 2 mps 638 mmHg 78%
    13:00 +24°C° 1.2 mm 2 mps 637 mmHg 77%
    14:00 +24°C° 1.2 mm 2 mps 637 mmHg 77%
    15:00 +24°C° 1.7 mm 1 mps 636 mmHg 81%
    16:00 +23°C° 1.7 mm 1 mps 636 mmHg 85%
    17:00 +22°C° 1.7 mm 1 mps 636 mmHg 89%
    18:00 +21°C° 1.4 mm 1 mps 636 mmHg 90%
    19:00 +20°C° 1.4 mm 1 mps 636 mmHg 91%
    20:00 +20°C° 1.4 mm 1 mps 636 mmHg 93%
    21:00 +19°C° 0.8 mm 1 mps 636 mmHg 93%
    22:00 +19°C° 0.8 mm 1 mps 637 mmHg 94%
    23:00 +19°C° 0.8 mm 1 mps 637 mmHg 94%

    21 February, Wednesday

    Time Temperature Precipitation Wind Pressure Humidity
    00:00 +19°C° 1.5 mm 1 mps 636 mmHg 94%
    01:00 +19°C° 1.5 mm 1 mps 636 mmHg 94%
    02:00 +19°C° 1.5 mm 1 mps 636 mmHg 94%
    03:00 +19°C° 0.9 mm 1 mps 636 mmHg 94%
    04:00 +19°C° 0.9 mm 1 mps 636 mmHg 95%
    05:00 +18°C° 0.9 mm 1 mps 636 mmHg 95%
    06:00 +19°C° 0.1 mm 1 mps 636 mmHg 93%
    07:00 +20°C° 0.1 mm 1 mps 637 mmHg 91%
    08:00 +19°C° 0.1 mm 2 mps 637 mmHg 90%
    09:00 +20°C° 0.3 mm 2 mps 638 mmHg 84%
    10:00 +23°C° 0.3 mm 2 mps 638 mmHg 79%
    11:00 +24°C° 0.3 mm 3 mps 638 mmHg 73%
    12:00 +24°C° 1 mm 3 mps 637 mmHg 74%
    13:00 +24°C° 1 mm 2 mps 637 mmHg 75%
    14:00 +24°C° 1 mm 2 mps 636 mmHg 76%
    15:00 +24°C° 1.6 mm 2 mps 636 mmHg 79%
    16:00 +24°C° 1.6 mm 2 mps 635 mmHg 82%
    17:00 +23°C° 1.6 mm 2 mps 635 mmHg 84%
    18:00 +22°C° 0.9 mm 1 mps 635 mmHg 86%
    19:00 +21°C° 0.9 mm 1 mps 635 mmHg 89%
    20:00 +20°C° 0.9 mm 1 mps 635 mmHg 91%
    21:00 +20°C° 0.5 mm 1 mps 636 mmHg 91%
    22:00 +19°C° 0.5 mm 1 mps 636 mmHg 92%
    23:00 +19°C° 0.5 mm 1 mps 636 mmHg 93%

    22 February, Thursday

    Time Temperature Precipitation Wind Pressure Humidity
    00:00 +19°C° 0.6 mm 1 mps 635 mmHg 93%
    01:00 +19°C° 0.6 mm 1 mps 635 mmHg 94%
    02:00 +19°C° 0.6 mm 1 mps 635 mmHg 95%
    03:00 +19°C° 0.2 mm 1 mps 635 mmHg 95%
    04:00 +18°C° 0.2 mm 1 mps 635 mmHg 95%
    05:00 +18°C° 0.2 mm 1 mps 635 mmHg 96%
    06:00 +18°C° 0.2 mm 2 mps 636 mmHg 94%
    07:00 +19°C° 0.2 mm 2 mps 636 mmHg 92%
    08:00 +19°C° 0.2 mm 2 mps 637 mmHg 90%
    09:00 +21°C° 0.6 mm 2 mps 637 mmHg 85%
    10:00 +22°C° 0.6 mm 3 mps 637 mmHg 80%
    11:00 +24°C° 0.6 mm 3 mps 637 mmHg 76%
    12:00 +24°C° 1.3 mm 3 mps 637 mmHg 76%
    13:00 +24°C° 1.3 mm 3 mps 636 mmHg 77%
    14:00 +24°C° 1.3 mm 2 mps 636 mmHg 78%
    15:00 +24°C° 1.5 mm 2 mps 635 mmHg 79%
    16:00 +24°C° 1.5 mm 2 mps 635 mmHg 81%
    17:00 +24°C° 1.5 mm 1 mps 635 mmHg 83%
    18:00 +22°C° 1.6 mm 1 mps 635 mmHg 86%
    19:00 +21°C° 1.6 mm 1 mps 635 mmHg 89%
    20:00 +20°C° 1.6 mm 1 mps 635 mmHg 92%
    21:00 +20°C° 1.2 mm 1 mps 636 mmHg 93%
    22:00 +19°C° 1.2 mm 1 mps 636 mmHg 94%
    23:00 +19°C° 1.2 mm 1 mps 636 mmHg 95%

    23 February, Friday

    Time Temperature Precipitation Wind Pressure Humidity
    00:00 +19°C° 0.6 mm 1 mps 636 mmHg 95%
    01:00 +17°C° 0.6 mm 2 mps 635 mmHg 95%
    02:00 +17°C° 0.6 mm 2 mps 635 mmHg 95%
    03:00 +17°C° 0 mm 2 mps 635 mmHg 96%
    04:00 +17°C° 0 mm 2 mps 635 mmHg 96%
    05:00 +17°C° 0 mm 2 mps 635 mmHg 96%
    06:00 +18°C° 0 mm 2 mps 636 mmHg 93%
    07:00 +19°C° 0 mm 3 mps 637 mmHg 90%
    08:00 +20°C° 0 mm 3 mps 637 mmHg 88%
    09:00 +21°C° 0.1 mm 3 mps 637 mmHg 82%
    10:00 +22°C° 0.1 mm 4 mps 637 mmHg 76%
    11:00 +25°C° 0.1 mm 4 mps 637 mmHg 71%
    12:00 +25°C° 0.6 mm 4 mps 637 mmHg 70%
    13:00 +25°C° 0.6 mm 3 mps 636 mmHg 70%
    14:00 +26°C° 0.6 mm 3 mps 636 mmHg 70%
    15:00 +25°C° 0.8 mm 2 mps 636 mmHg 73%
    16:00 +25°C° 0.8 mm 2 mps 636 mmHg 76%
    17:00 +24°C° 0.8 mm 2 mps 636 mmHg 79%
    18:00 +23°C° 1.1 mm 2 mps 636 mmHg 84%
    19:00 +21°C° 1.1 mm 1 mps 636 mmHg 89%
    20:00 +20°C° 1.1 mm 1 mps 636 mmHg 94%
    21:00 +20°C° 1.2 mm 1 mps 636 mmHg 94%
    22:00 +19°C° 1.2 mm 1 mps 636 mmHg 94%
    23:00 +19°C° 1.2 mm 1 mps 636 mmHg 94%
    Show more